Weather History for Pompano Beach, FL

Change the Weather History Date:

Friday, September 14, 2012

  Actual Average Record
Temperature  
Mean Temperature 80 °F -  
Max Temperature 87 °F 90 °F 95 °F (1973)
Min Temperature 75 °F 74 °F 0 °F (2013)
Cooling Degree Days 16    
Growing Degree Days 30 (Base 50)    
Moisture  
Dew Point 73 °F    
Average Humidity 79    
Maximum Humidity 96    
Minimum Humidity 65    
Precipitation  
Precipitation 0.13 in - - ()
Sea Level Pressure  
Sea Level Pressure 30.00 in    
Wind  
Wind Speed 8 mph (East)    
Max Wind Speed 13 mph    
Max Gust Speed 21 mph    
Visibility 10 miles    
Events Rain , Thunderstorm    
Averages and records for this station are not official NWS values.
T = Trace of Precipitation, MM = Missing Value Source: NWS Daily Summary

Daily Weather History Graph

Daily Weather History Graph

Search for Another Location

Airport:

Trip Planner

Search our weather history database for the weather conditions in past years. The results will help you decide how hot, cold, wet, or windy it might be!

Date:

Astronomy

Sep. 14, 2012 Rise Set
Actual Time 7:05 AM EDT 7:25 PM EDT
Civil Twilight 6:42 AM EDT 7:48 PM EDT
Nautical Twilight 6:15 AM EDT 8:15 PM EDT
Astronomical Twilight 5:48 AM EDT 8:42 PM EDT
Moon 5:33 AM EDT (9/14) 6:19 PM EDT (9/14)
Length of Visible Light 13h 05m
Length of Day
12h 19m
Waning Crescent, 3% of the Moon is Illuminated
Sep 14
Waning Crescent
Sep 15
New
Sep 22
First Quarter
Sep 29
Full
Oct 8
Last Quarter

Hourly Weather History & Observations

Time (EDT) Temp. Heat Index Dew Point Humidity Pressure Visibility Wind Dir Wind Speed Gust Speed Precip Events Conditions
12:53 AM 80.1 °F 84.2 °F 73.0 °F 79% 30.03 in 10.0 mi ENE 8.1 mph - N/A   Partly Cloudy
1:53 AM 79.0 °F - 72.0 °F 79% 30.02 in 10.0 mi ENE 5.8 mph - N/A   Clear
2:53 AM 79.0 °F - 73.0 °F 82% 30.00 in 10.0 mi ENE 6.9 mph - N/A   Clear
3:53 AM 79.0 °F - 73.0 °F 82% 29.99 in 10.0 mi ENE 4.6 mph - N/A   Partly Cloudy
4:53 AM 79.0 °F - 73.0 °F 82% 29.99 in 10.0 mi ENE 4.6 mph - N/A   Clear
5:53 AM 79.0 °F - 73.0 °F 82% 29.99 in 10.0 mi ENE 4.6 mph - N/A   Clear
6:53 AM 75.9 °F - 73.0 °F 91% 29.98 in 10.0 mi Calm Calm - 0.00 in Rain Light Rain
7:53 AM 79.0 °F - 73.9 °F 84% 30.00 in 10.0 mi East 4.6 mph - 0.00 in   Mostly Cloudy
8:53 AM 82.9 °F 88.8 °F 73.0 °F 72% 30.01 in 10.0 mi East 8.1 mph - N/A   Partly Cloudy
9:53 AM 84.0 °F 90.2 °F 73.0 °F 69% 30.01 in 10.0 mi East 11.5 mph - N/A   Partly Cloudy
10:53 AM 84.9 °F 92.1 °F 73.9 °F 69% 30.03 in 10.0 mi East 10.4 mph - N/A   Mostly Cloudy
11:53 AM 86.0 °F 93.0 °F 73.0 °F 65% 30.03 in 10.0 mi East 11.5 mph - N/A   Scattered Clouds
12:53 PM 86.0 °F 93.8 °F 73.9 °F 67% 30.01 in 10.0 mi East 11.5 mph - N/A   Scattered Clouds
1:53 PM 84.9 °F 93.3 °F 75.0 °F 72% 30.00 in 10.0 mi East 11.5 mph - N/A   Scattered Clouds
2:53 PM 84.0 °F 91.2 °F 73.9 °F 72% 29.99 in 10.0 mi East 12.7 mph 20.7 mph N/A   Mostly Cloudy
3:53 PM 86.0 °F 93.8 °F 73.9 °F 67% 29.98 in 10.0 mi East 11.5 mph - N/A   Scattered Clouds
4:53 PM 82.9 °F 89.4 °F 73.9 °F 74% 29.97 in 10.0 mi East 11.5 mph - 0.00 in   Mostly Cloudy
5:53 PM 84.0 °F 91.2 °F 73.9 °F 72% 29.97 in 10.0 mi East 10.4 mph - N/A   Scattered Clouds
6:53 PM 79.0 °F - 73.0 °F 82% 29.99 in 10.0 mi East 6.9 mph - N/A   Scattered Clouds
7:53 PM 80.1 °F 84.2 °F 73.0 °F 79% 30.00 in 10.0 mi ENE 11.5 mph - N/A   Mostly Cloudy
8:53 PM 80.1 °F 83.6 °F 71.1 °F 74% 30.02 in 10.0 mi ENE 9.2 mph - N/A Thunderstorm Overcast
9:53 PM 75.9 °F - 73.9 °F 94% 30.04 in 10.0 mi ENE 10.4 mph - 0.05 in Thunderstorm Mostly Cloudy
10:06 PM 75.2 °F - 73.4 °F 94% 30.03 in 8.0 mi ENE 10.4 mph - 0.01 in Rain Light Rain
10:53 PM 75.9 °F - 73.9 °F 94% 30.02 in 10.0 mi ESE 4.6 mph - 0.05 in Rain Light Rain
11:53 PM 77.0 °F - 75.9 °F 96% 30.02 in 10.0 mi Calm Calm - 0.03 in   Partly Cloudy